OBJECT H, 63298

Orbit data source: Space-Track

You're viewing an Uncataloged Satellite

Recently launched and/or uncataloged satellites may have evolving metadata. Metadata may include but not limited to: Owner, Maufacturer, Bus, Motor, and Mission.

OBJECT H, 63298 is a satellite in SSO that was launched on Mon, 17 Mar 2025 UTC via a GUSHENXING 1 launch vehicle from the Jiuquan Satellite Launch Center, China (JSC). Unknown objects in Earth's orbit typically refer to objects detected orbiting the Earth but have not yet been identified or cataloged. These objects could be anything from previously untracked satellites, spent rocket stages, debris from satellite collisions, or even natural meteoroids temporarily captured by Earth's gravity.

Loading next visibility...
Identifier
63298, 2025-055H
Orbit
SSO
Last TLE update
6 hours ago
Origin
Unknown
Manufacturer
ZHWK/HITSAT
Mission
Operational Commercial Imaging
Bus & Motor
ZK1, Unknown motor
Mass
~250 kg wet, ~250 kg dry
Launch date (UTC)
2025-03-17 (2 months ago)
Launch vehicle
GUSHENXING 1
Launch site
Jiuquan Satellite Launch Center, China (JSC)
Object type
Unknown
Shape & HBR
Box + 3 Pan, 6 m
Radar Cross Section
3.533 m², Medium (>0.1 m² and < 1m²)

Expand to show TLE details & history

TLE from 6 hours ago
0 OBJECT H
1 63298U 25055H   25140.40422003  .00014385  00000-0  81652-3 0  9998
2 63298  97.6067 275.4600 0012288  78.4011 281.8598 15.12985251  9640
Epoch: 2025-05-20T09:42Z
TLE epoch observation values (Epoch: 2025-05-20T09:42:04.61Z)
Latitude
-0.00007°
Longitude
-108.36217°
Altitude
528.443 km
Speed
7.6 km/s
True Right ascension
18h 21m 50s
True Declination
0° 00' 00"
Sunlit
Object was in full shadow at epoch
Visualization orbit readout
Latitude
-82.35883°
Longitude
-10.00439°
Altitude
563.769 km
Speed
7.574 km/s
Apparent Right ascension
12h 27m 18s
Apparent Declination
-69° 59' 53"
Sunlit
Object is in daylight
Visualization observer readout
Local Sidereal Time
00:32:34
Azimuth
179.101° S
Elevation
-59.91°
Doppler factor
1
Orbital elements
Apogee altitude
532.567 km
Perigee altitude
515.604 km
Semi-major axis
6,902.223 km
Eccentricity
0.00123
Inclination
97.6067°
RAAN
275.46°
Arg. of periapsis
78.4011°
True anomaly
Unknown
Mean anomaly
281.8598°
Eccentric anomaly
Unknown
Mean motion
3.78495 °/min
Orbital period
95.11 mins
BSTAR
0.00081652
Loading maneuver chart data...
Loading SW <> Apogee altitude chart data...
Loading historical data...
Loading historical data...
Loading historical data...
Loading historical data...
Loading historical data...
Loading historical data...
Loading historical data...

OBJECT H Visibility forecast

Observer location: undefined°, undefined°

Span
Click to sort rows by Start time (UTC) header in descending order
Start Az.
Max El. time (UTC)
Max El. Az.
Max El.
End time (UTC)
End Az.
6 mins2025-05-20 21:22:51.810Z33.268° NE2025-05-20 21:25:51.810Z99.222° ESE30.86°2025-05-20 21:28:51.810Z163.497° S
5 mins2025-05-21 09:38:51.810Z214.998° SW2025-05-21 09:40:51.810Z261.762° W25.647°2025-05-21 09:43:51.810Z321.694° NNW
|